Flag for Finland Weather past 2 weeks in Rovaniemi, Finland

25 °F


Feels Like: 19 °F
Forecast: 24 / 36 °F
Wind: 5 mph from Northeast

Location: Rovaniemi Airport

Current Time: Oct 9, 2015 at 5:40:08 AM

Latest Report: Oct 9, 2015 at 5:20 AM

Visibility: 10 mi

Pressure: 30.51 "Hg

Humidity: 93%

Dew point: 23 °F

Location of RovaniemiLocation

Historic Weather in Rovaniemi — Graph


Rovaniemi temperature yesterday

Maximum temperature yesterday: 37 °F (at 3:20 PM)
Minimum temperature yesterday: 21 °F (at 7:50 AM)
Average temperature yesterday: 29 °F

Past Weeks' High & Low Weather Summary

High57 °F (Sep 24, 3:20 PM)100% (Sep 24, 4:20 AM)30.57 "Hg (Sep 24, 4:20 AM)
Low21 °F (Oct 8, 7:50 AM)48% (Oct 8, 3:20 PM)28.88 "Hg (Oct 2, 2:50 PM)
Average41 °F86%29.99 "Hg
* Reported Sep 24 4:20 AM — Oct 9 4:20 AM, Rovaniemi, Weather by CustomWeather, © 2015

Note: Actual official high and low records may vary slightly from our data, if they occured in-between our weather recording intervals... More about our weather records


Rovaniemi weather history for previous 24 hours

Time TempWeatherWind HumidityBarometerVisibility
4:20 AM
Fri, Oct 9
27 °FClear.7 mph86%30.48 "Hg10 mi
3:50 AM27 °FClear.6 mph86%30.51 "Hg10 mi
3:20 AM27 °FClear.5 mph86%30.48 "Hg10 mi
2:50 AM27 °FClear.6 mph86%30.48 "Hg10 mi
2:20 AM27 °FClear.6 mph86%30.51 "Hg10 mi
1:50 AM27 °FClear.3 mph86%30.51 "Hg10 mi
1:20 AM27 °FClear.3 mph86%30.51 "Hg10 mi
12:20 AM28 °FClear.2 mph74%30.51 "Hg10 mi
11:50 PM
Thu, Oct 8
28 °FClear.3 mph74%30.51 "Hg10 mi
11:20 PM28 °FClear.5 mph74%30.51 "Hg10 mi
10:50 PM28 °FClear.5 mph74%30.51 "Hg10 mi
10:20 PM28 °FClear.5 mph74%30.51 "Hg10 mi
9:50 PM28 °FClear.6 mph74%30.51 "Hg10 mi
9:20 PM28 °FClear.3 mph74%30.51 "Hg10 mi
8:50 PM27 °FClear.5 mph80%30.51 "Hg10 mi
8:20 PM28 °FClear.6 mph74%30.51 "Hg10 mi
7:50 PM28 °FClear.7 mph74%30.51 "Hg10 mi
7:20 PM30 °FClear.5 mph64%30.51 "Hg10 mi
6:50 PM30 °FSunny.6 mph64%30.51 "Hg10 mi
6:20 PM32 °FSunny.6 mph60%30.51 "Hg10 mi
5:50 PM32 °FSunny.6 mph60%30.51 "Hg10 mi
5:20 PM36 °FSunny.5 mph52%30.51 "Hg10 mi
4:50 PM36 °FSunny.6 mph52%30.51 "Hg10 mi
4:20 PM36 °FSunny.8 mph56%30.51 "Hg10 mi
3:50 PM37 °FSunny.5 mph52%30.51 "Hg10 mi
3:20 PM37 °FSunny.5 mph48%30.51 "Hg10 mi
2:50 PM36 °FPassing clouds.5 mph52%30.51 "HgN/A
2:20 PM36 °FPassing clouds.6 mph56%30.51 "HgN/A
1:50 PM36 °FPassing clouds.6 mph56%30.51 "HgN/A
1:20 PM36 °FPassing clouds.6 mph60%30.51 "HgN/A
12:50 PM34 °FPassing clouds.6 mph65%30.51 "HgN/A
12:20 PM34 °FSunny.5 mph65%30.51 "Hg10 mi
11:50 AM32 °FSunny.5 mph69%30.51 "Hg10 mi
11:20 AM28 °FSunny.5 mph80%30.51 "Hg10 mi
10:50 AM28 °FSunny.5 mph80%30.51 "Hg10 mi
10:20 AM27 °FSunny.5 mph86%30.51 "Hg10 mi
9:50 AM25 °FSunny.6 mph93%30.51 "Hg10 mi
9:20 AM23 °FSunny.7 mph93%30.51 "Hg10 mi
8:50 AM23 °FSunny.7 mph93%30.51 "Hg10 mi
8:20 AM21 °FLight fog.3 mph93%30.51 "HgN/A
7:50 AM21 °FLight fog.2 mph93%30.51 "HgN/A
7:20 AM25 °FClear.2 mph86%30.51 "Hg10 mi
6:20 AM25 °FClear.3 mph86%30.51 "Hg10 mi
5:50 AM25 °FClear.3 mph86%30.51 "Hg10 mi
5:20 AM25 °FClear.5 mph86%30.51 "Hg10 mi
Weather by CustomWeather, © 2015

See weather overviewHow to use our weather pages